Location: Quesnel
(52.9830°N, 122.4830°W)
Time: 15:19:39
(UTC-07:00)

ISS - All Passes

Search period start: 29 May 2015 00:00
Search period end: 08 June 2015 00:00
Orbit: 399 x 404 km, 51.6° (Epoch: 29 May)

Date Brightness Start Highest point End Pass type
(mag) Time Alt. Az. Time Alt. Az. Time Alt. Az.
29 May - 00:44:53 10° SW 00:47:56 38° SSE 00:51:00 10° E visible
29 May - 02:20:54 10° W 02:24:09 71° S 02:27:25 10° E visible
29 May - 03:57:15 10° W 04:00:25 47° SSW 04:03:34 10° ESE visible
29 May - 05:34:16 10° WSW 05:36:19 16° SW 05:38:20 10° S daylight
29 May - 23:52:00 10° SSW 23:54:48 27° SSE 23:57:39 10° E visible
30 May - 01:27:41 10° WSW 01:30:55 65° S 01:34:10 10° E visible
30 May - 03:04:00 10° W 03:07:13 59° SSW 03:10:27 10° ESE visible
30 May - 04:40:36 10° W 04:43:16 23° SSW 04:45:55 10° SSE daylight
30 May - 22:59:22 10° SSW 23:01:44 19° SSE 23:04:09 10° E visible
31 May - 00:34:32 10° WSW 00:37:43 54° SSE 00:40:55 10° E visible
31 May - 02:10:45 10° W 02:14:00 68° S 02:17:15 10° ESE visible
31 May - 03:47:11 10° W 03:50:10 32° SSW 03:53:08 10° SE visible
31 May - 22:07:15 10° SSE 22:08:42 13° SE 22:10:13 10° ESE visible
31 May - 23:41:26 10° SW 23:44:31 41° SSE 23:47:37 10° E visible
01 Jun - 01:17:30 10° W 01:20:45 71° S 01:24:01 10° E visible
01 Jun - 02:53:52 10° W 02:57:00 44° SSW 03:00:08 10° SE visible
01 Jun - 04:31:02 10° WSW 04:32:52 14° SW 04:34:38 10° S daylight
01 Jun - 22:48:28 10° SW 22:51:21 30° SSE 22:54:16 10° E visible
02 Jun - 00:24:15 10° WSW 00:27:30 67° S 00:30:45 10° E visible
02 Jun - 02:00:34 10° W 02:03:47 57° SSW 02:07:00 10° ESE visible
02 Jun - 03:37:15 10° W 03:39:48 21° SSW 03:42:19 10° SSE visible
02 Jun - 21:55:44 10° SSW 21:58:14 21° SSE 22:00:47 10° E daylight
02 Jun - 23:31:02 10° WSW 23:34:14 57° SSE 23:37:27 10° E visible
03 Jun - 01:07:18 10° W 01:10:33 67° S 01:13:47 10° ESE visible
03 Jun - 02:43:46 10° W 02:46:40 30° SSW 02:49:35 10° SE visible
03 Jun - 21:03:25 10° S 21:05:09 14° SE 21:06:58 10° ESE daylight
03 Jun - 22:37:53 10° SW 22:41:00 44° SSE 22:44:08 10° E visible
04 Jun - 00:14:01 10° W 00:17:15 71° S 00:20:31 10° E visible
04 Jun - 01:50:23 10° W 01:53:29 41° SSW 01:56:35 10° SE visible
04 Jun - 03:27:47 10° WSW 03:29:19 13° SW 03:30:47 10° SSW visible
04 Jun - 21:44:52 10° SW 21:47:48 32° SSE 21:50:47 10° E daylight
04 Jun - 23:20:44 10° WSW 23:23:58 68° S 23:27:13 10° E visible
05 Jun - 00:57:03 10° W 01:00:16 54° SSW 01:03:27 10° ESE visible
05 Jun - 02:33:49 10° W 02:36:14 19° SSW 02:38:37 10° SSE visible
05 Jun - 20:52:02 10° SSW 20:54:38 23° SSE 20:57:17 10° E daylight
05 Jun - 22:27:28 10° WSW 22:30:41 59° SSE 22:33:54 10° E visible
06 Jun - 00:03:44 10° W 00:06:58 65° S 00:10:13 10° ESE visible
06 Jun - 01:40:15 10° W 01:43:05 27° SSW 01:45:55 10° SSE visible
06 Jun - 19:59:32 10° S 20:01:31 15° SE 20:03:33 10° ESE daylight
06 Jun - 21:34:16 10° WSW 21:37:25 47° SSE 21:40:34 10° E daylight
06 Jun - 23:10:25 10° W 23:13:40 70° S 23:16:55 10° E visible
07 Jun - 00:46:49 10° W 00:49:52 38° SSW 00:52:56 10° SE visible
07 Jun - 02:24:32 10° WSW 02:25:40 11° SW 02:26:42 10° SSW visible
07 Jun - 20:41:10 10° SW 20:44:09 35° SSE 20:47:11 10° E daylight
07 Jun - 22:17:06 10° W 22:20:20 69° S 22:23:35 10° E visible
07 Jun - 23:53:26 10° W 23:56:37 51° SSW 23:59:47 10° ESE visible
